timestamp,wind_dir_avg,wind_spd_max_dir,wind_spd_avg,wind_spd_gust,battery_voltage,lat,long
2018-10-16 00:00:00+00:00,259.0,266.0,8.43,9.32,,47.59359,-54.27349
2018-10-16 00:10:00+00:00,263.0,262.0,8.14,8.78,,47.59359,-54.27349
2018-10-16 00:20:00+00:00,265.0,263.0,8.49,9.39,,47.59359,-54.27349
2018-10-16 00:30:00+00:00,261.0,258.0,7.46,8.31,,47.59359,-54.27349
2018-10-16 00:40:00+00:00,257.0,256.0,7.7,8.33,,47.59359,-54.27349
2018-10-16 00:50:00+00:00,266.0,267.0,6.86,7.43,,47.59359,-54.27349
2018-10-16 01:00:00+00:00,269.0,272.0,6.89,7.88,,47.59359,-54.27349
2018-10-16 01:10:00+00:00,272.0,271.0,5.96,6.76,,47.59359,-54.27349
2018-10-16 01:20:00+00:00,259.0,264.0,6.41,7.19,,47.59359,-54.27349
2018-10-16 01:30:00+00:00,267.0,276.0,5.38,6.22,,47.59359,-54.27349
2018-10-16 01:40:00+00:00,263.0,261.0,5.31,5.98,,47.59359,-54.27349
2018-10-16 01:50:00+00:00,261.0,259.0,5.06,5.76,,47.59359,-54.27349
2018-10-16 02:00:00+00:00,256.0,252.0,5.1,6.19,,47.59359,-54.27349
2018-10-16 02:10:00+00:00,249.0,252.0,5.79,6.88,,47.59359,-54.27349
2018-10-16 02:20:00+00:00,247.0,254.0,5.45,6.26,,47.59359,-54.27349
2018-10-16 02:30:00+00:00,248.0,246.0,5.78,6.61,,47.59359,-54.27349
2018-10-16 02:40:00+00:00,248.0,253.0,6.13,6.89,,47.59359,-54.27349
2018-10-16 02:50:00+00:00,239.0,238.0,7.29,8.07,,47.59359,-54.27349
2018-10-16 03:00:00+00:00,244.0,244.0,5.81,6.58,,47.59359,-54.27349
2018-10-16 03:10:00+00:00,256.0,260.0,5.92,7.01,,47.59359,-54.27349
2018-10-16 03:20:00+00:00,244.0,237.0,6.13,7.09,,47.59359,-54.27349
2018-10-16 03:30:00+00:00,248.0,252.0,5.97,6.88,,47.59359,-54.27349
2018-10-16 03:40:00+00:00,239.0,239.0,6.65,7.96,,47.59359,-54.27349
2018-10-16 03:50:00+00:00,243.0,253.0,5.13,6.19,,47.59359,-54.27349
2018-10-16 04:00:00+00:00,235.0,238.0,6.3,7.63,,47.59359,-54.27349
2018-10-16 04:10:00+00:00,242.0,240.0,6.63,7.72,,47.59359,-54.27349
2018-10-16 04:20:00+00:00,236.0,239.0,5.91,6.28,,47.59359,-54.27349
2018-10-16 04:30:00+00:00,233.0,231.0,5.94,7.05,,47.59359,-54.27349
2018-10-16 04:40:00+00:00,235.0,235.0,7.07,8.01,,47.59359,-54.27349
2018-10-16 04:50:00+00:00,231.0,232.0,7.19,8.42,,47.59359,-54.27349
2018-10-16 05:00:00+00:00,235.0,234.0,7.45,8.59,,47.59359,-54.27349
2018-10-16 05:10:00+00:00,245.0,246.0,6.2,7.69,,47.59359,-54.27349
2018-10-16 05:20:00+00:00,240.0,242.0,7.3,8.46,,47.59359,-54.27349
2018-10-16 05:30:00+00:00,243.0,240.0,6.46,7.86,,47.59359,-54.27349
2018-10-16 05:40:00+00:00,234.0,233.0,6.92,8.06,,47.59359,-54.27349
2018-10-16 05:50:00+00:00,237.0,236.0,7.23,7.76,,47.59359,-54.27349
2018-10-16 06:00:00+00:00,227.0,227.0,8.8,10.0,,47.59359,-54.27349
2018-10-16 06:10:00+00:00,223.0,221.0,8.29,9.21,,47.59359,-54.27349
2018-10-16 06:20:00+00:00,227.0,230.0,7.82,8.58,,47.59359,-54.27349
2018-10-16 06:30:00+00:00,224.0,227.0,6.93,8.09,,47.59359,-54.27349
2018-10-16 06:40:00+00:00,227.0,226.0,9.75,10.73,,47.59359,-54.27349
2018-10-16 06:50:00+00:00,225.0,225.0,10.38,12.16,,47.59359,-54.27349
2018-10-16 07:00:00+00:00,227.0,231.0,9.7,11.43,,47.59359,-54.27349
2018-10-16 07:10:00+00:00,219.0,220.0,10.25,11.56,,47.59359,-54.27349
2018-10-16 07:20:00+00:00,216.0,217.0,9.95,10.89,,47.59359,-54.27349
2018-10-16 07:30:00+00:00,198.0,204.0,9.97,10.79,,47.59359,-54.27349
2018-10-16 07:40:00+00:00,202.0,199.0,9.71,10.82,,47.59359,-54.27349
2018-10-16 07:50:00+00:00,213.0,211.0,10.03,11.06,,47.59359,-54.27349
2018-10-16 08:00:00+00:00,203.0,202.0,10.16,11.48,,47.59359,-54.27349
2018-10-16 08:10:00+00:00,212.0,212.0,9.84,11.42,,47.59359,-54.27349
2018-10-16 08:20:00+00:00,212.0,214.0,12.05,13.63,,47.59359,-54.27349
2018-10-16 08:30:00+00:00,204.0,197.0,12.07,14.43,,47.59359,-54.27349
2018-10-16 08:40:00+00:00,201.0,205.0,12.15,13.43,,47.59359,-54.27349
2018-10-16 08:50:00+00:00,201.0,208.0,10.01,11.06,,47.59359,-54.27349
2018-10-16 09:00:00+00:00,193.0,198.0,10.12,11.54,,47.59359,-54.27349
2018-10-16 09:10:00+00:00,197.0,198.0,11.21,13.44,,47.59359,-54.27349
2018-10-16 09:20:00+00:00,195.0,189.0,12.42,13.74,,47.59359,-54.27349
2018-10-16 09:30:00+00:00,202.0,203.0,11.04,12.26,,47.59359,-54.27349
2018-10-16 09:40:00+00:00,195.0,199.0,12.06,13.8,,47.59359,-54.27349
2018-10-16 09:50:00+00:00,204.0,202.0,14.56,16.04,,47.59359,-54.27349
2018-10-16 10:00:00+00:00,195.0,189.0,13.78,16.56,,47.59359,-54.27349
2018-10-16 10:10:00+00:00,198.0,194.0,12.06,14.29,,47.59359,-54.27349
2018-10-16 10:20:00+00:00,200.0,206.0,14.82,17.54,,47.59359,-54.27349
2018-10-16 10:30:00+00:00,198.0,202.0,15.5,17.03,,47.59359,-54.27349
2018-10-16 10:40:00+00:00,199.0,189.0,15.36,17.65,,47.59359,-54.27349
2018-10-16 10:50:00+00:00,192.0,191.0,16.31,18.23,,47.59359,-54.27349
2018-10-16 11:00:00+00:00,189.0,184.0,16.96,19.96,,47.59359,-54.27349
2018-10-16 11:10:00+00:00,187.0,184.0,16.21,19.15,,47.59359,-54.27349
2018-10-16 11:20:00+00:00,188.0,196.0,15.03,18.95,,47.59359,-54.27349
2018-10-16 11:30:00+00:00,189.0,194.0,15.83,17.78,,47.59359,-54.27349
2018-10-16 11:40:00+00:00,184.0,182.0,14.45,18.01,,47.59359,-54.27349
2018-10-16 11:50:00+00:00,188.0,176.0,16.43,19.52,,47.59359,-54.27349
2018-10-16 12:00:00+00:00,184.0,183.0,17.9,19.95,,47.59359,-54.27349
2018-10-16 12:10:00+00:00,181.0,183.0,16.09,19.06,,47.59359,-54.27349
2018-10-16 12:20:00+00:00,183.0,176.0,14.87,16.61,,47.59359,-54.27349
2018-10-16 12:30:00+00:00,186.0,186.0,17.27,20.47,,47.59359,-54.27349
2018-10-16 12:40:00+00:00,184.0,182.0,16.34,19.3,,47.59359,-54.27349
2018-10-16 12:50:00+00:00,185.0,189.0,17.59,20.24,,47.59359,-54.27349
2018-10-16 13:00:00+00:00,182.0,180.0,15.67,19.09,,47.59359,-54.27349
2018-10-16 13:10:00+00:00,191.0,199.0,19.88,22.73,,47.59359,-54.27349
2018-10-16 13:20:00+00:00,185.0,184.0,20.15,25.54,,47.59359,-54.27349
2018-10-16 13:30:00+00:00,186.0,195.0,19.31,23.55,,47.59359,-54.27349
2018-10-16 13:40:00+00:00,188.0,184.0,19.08,22.14,,47.59359,-54.27349
2018-10-16 13:50:00+00:00,189.0,195.0,21.58,26.4,,47.59359,-54.27349
2018-10-16 14:00:00+00:00,188.0,188.0,22.14,26.67,,47.59359,-54.27349
2018-10-16 14:10:00+00:00,188.0,190.0,23.38,26.84,,47.59359,-54.27349
2018-10-16 14:20:00+00:00,193.0,192.0,21.53,26.43,,47.59359,-54.27349
2018-10-16 14:30:00+00:00,192.0,198.0,24.02,27.48,,47.59359,-54.27349
2018-10-16 14:40:00+00:00,195.0,196.0,20.25,23.27,,47.59359,-54.27349
2018-10-16 14:50:00+00:00,196.0,191.0,24.33,29.16,,47.59359,-54.27349
2018-10-16 15:00:00+00:00,197.0,194.0,23.69,29.88,,47.59359,-54.27349
2018-10-16 15:10:00+00:00,198.0,206.0,24.16,29.25,,47.59359,-54.27349
2018-10-16 15:20:00+00:00,195.0,189.0,23.95,28.73,,47.59359,-54.27349
2018-10-16 15:30:00+00:00,197.0,195.0,25.07,29.86,,47.59359,-54.27349
2018-10-16 15:40:00+00:00,198.0,196.0,24.42,27.94,,47.59359,-54.27349
2018-10-16 15:50:00+00:00,203.0,199.0,24.44,28.64,,47.59359,-54.27349
2018-10-16 16:00:00+00:00,205.0,207.0,26.05,31.14,,47.59359,-54.27349
2018-10-16 16:10:00+00:00,206.0,206.0,25.5,34.8,,47.59359,-54.27349
2018-10-16 16:20:00+00:00,210.0,216.0,24.78,29.84,,47.59359,-54.27349
2018-10-16 16:30:00+00:00,211.0,208.0,28.53,37.14,,47.59359,-54.27349
2018-10-16 16:40:00+00:00,214.0,213.0,26.1,32.27,,47.59359,-54.27349
2018-10-16 16:50:00+00:00,220.0,223.0,25.09,29.19,,47.59359,-54.27349
2018-10-16 17:00:00+00:00,220.0,220.0,23.18,26.82,,47.59359,-54.27349
2018-10-16 17:10:00+00:00,225.0,219.0,20.83,24.32,,47.59359,-54.27349
2018-10-16 17:20:00+00:00,228.0,232.0,21.2,24.12,,47.59359,-54.27349
2018-10-16 17:30:00+00:00,227.0,226.0,20.92,25.11,,47.59359,-54.27349
2018-10-16 17:40:00+00:00,232.0,230.0,19.68,22.87,,47.59359,-54.27349
2018-10-16 17:50:00+00:00,266.0,264.0,19.56,23.14,,47.59359,-54.27349
2018-10-16 18:00:00+00:00,272.0,274.0,15.83,18.33,,47.59359,-54.27349
2018-10-16 18:10:00+00:00,260.0,262.0,17.41,21.88,,47.59359,-54.27349
2018-10-16 18:20:00+00:00,270.0,267.0,21.52,25.65,,47.59359,-54.27349
2018-10-16 18:30:00+00:00,268.0,268.0,17.48,20.3,,47.59359,-54.27349
2018-10-16 18:40:00+00:00,275.0,274.0,17.84,21.73,,47.59359,-54.27349
2018-10-16 18:50:00+00:00,269.0,271.0,19.7,22.74,,47.59359,-54.27349
2018-10-16 19:00:00+00:00,260.0,254.0,19.06,23.05,,47.59359,-54.27349
2018-10-16 19:10:00+00:00,267.0,270.0,17.95,20.61,,47.59359,-54.27349
2018-10-16 19:20:00+00:00,264.0,270.0,21.0,28.86,,47.59359,-54.27349
2018-10-16 19:30:00+00:00,258.0,253.0,15.93,19.13,,47.59359,-54.27349
2018-10-16 19:40:00+00:00,258.0,261.0,18.23,21.02,,47.59359,-54.27349
2018-10-16 19:50:00+00:00,259.0,269.0,22.11,25.55,,47.59359,-54.27349
2018-10-16 20:00:00+00:00,258.0,260.0,20.13,23.49,,47.59359,-54.27349
2018-10-16 20:10:00+00:00,255.0,258.0,20.39,26.08,,47.59359,-54.27349
2018-10-16 20:20:00+00:00,260.0,252.0,19.26,23.88,,47.59359,-54.27349
2018-10-16 20:30:00+00:00,267.0,269.0,19.7,26.1,,47.59359,-54.27349
2018-10-16 20:40:00+00:00,259.0,260.0,18.76,23.33,,47.59359,-54.27349
2018-10-16 20:50:00+00:00,252.0,249.0,19.93,24.18,,47.59359,-54.27349
2018-10-16 21:00:00+00:00,246.0,253.0,17.83,22.09,,47.59359,-54.27349
2018-10-16 21:10:00+00:00,249.0,248.0,21.98,28.61,,47.59359,-54.27349
2018-10-16 21:20:00+00:00,255.0,264.0,19.41,24.03,,47.59359,-54.27349
2018-10-16 21:30:00+00:00,252.0,251.0,16.68,19.46,,47.59359,-54.27349
2018-10-16 21:40:00+00:00,255.0,253.0,22.52,28.8,,47.59359,-54.27349
2018-10-16 21:50:00+00:00,257.0,252.0,20.6,24.54,,47.59359,-54.27349
2018-10-16 22:00:00+00:00,256.0,258.0,20.01,26.4,,47.59359,-54.27349
2018-10-16 22:10:00+00:00,258.0,273.0,20.04,23.21,,47.59359,-54.27349
2018-10-16 22:20:00+00:00,259.0,263.0,18.55,22.32,,47.59359,-54.27349
2018-10-16 22:30:00+00:00,260.0,260.0,19.61,24.88,,47.59359,-54.27349
2018-10-16 22:40:00+00:00,264.0,269.0,18.09,24.69,,47.59359,-54.27349
2018-10-16 22:50:00+00:00,263.0,269.0,15.49,18.34,,47.59359,-54.27349
2018-10-16 23:00:00+00:00,261.0,263.0,19.0,23.27,,47.59359,-54.27349
2018-10-16 23:10:00+00:00,253.0,251.0,17.97,21.85,,47.59359,-54.27349
2018-10-16 23:20:00+00:00,261.0,265.0,18.57,23.85,,47.59359,-54.27349
2018-10-16 23:30:00+00:00,262.0,265.0,21.13,26.16,,47.59359,-54.27349
2018-10-16 23:40:00+00:00,266.0,268.0,17.05,19.91,,47.59359,-54.27349
2018-10-16 23:50:00+00:00,260.0,268.0,17.98,20.95,,47.59359,-54.27349
